Wiley, CO

5:34 PM MDT on October 01, 2016 (GMT -0600)
Lamar Municipal

Weather History for KLAA - April, 2014

Change the Weather History Date:

Friday, April 11, 2014

  Actual Average Record
Temperature  
Mean Temperature 61 °F 51 °F  
Max Temperature 84 °F 68 °F 90 °F (1972)
Min Temperature 38 °F 34 °F 12 °F (1997)
Degree Days  
Heating Degree Days 4 14  
Month to date heating degree days 157 174  
Since 1 July heating degree days 5126 5183  
Cooling Degree Days 0 0  
Month to date cooling degree days 0 0  
Year to date cooling degree days 0 0  
Growing Degree Days 12 (Base 50)    
Moisture  
Dew Point 30 °F    
Average Humidity 40    
Maximum Humidity 70    
Minimum Humidity 9    
Precipitation  
Precipitation 0.00 in 0.03 in 0.46 in (1959)
Month to date precipitation 0.16 0.33  
Year to date precipitation 0.69 1.84  
Sea Level Pressure  
Sea Level Pressure 29.81 in    
Wind  
Wind Speed 12 mph (SSW)    
Max Wind Speed 26 mph    
Max Gust Speed 35 mph    
Visibility 10 miles    
Events      
T = Trace of Precipitation, MM = Missing Value Source: NWS Daily Summary

Daily Weather History Graph

Daily Weather History Graph

Search for Another Location

Airport or City:

Trip Planner

Search our weather history database for the weather conditions in past years. The results will help you decide how hot, cold, wet, or windy it might be!

Date:

Astronomy

Apr. 11, 2014 Rise Set
Actual Time 6:20 AM MDT 7:23 PM MDT
Civil Twilight 5:53 AM MDT 7:50 PM MDT
Nautical Twilight 5:21 AM MDT 8:22 PM MDT
Astronomical Twilight 4:48 AM MDT 8:55 PM MDT
Moon 4:08 PM MDT (4/11) 4:13 AM MDT (4/11)
Length of Visible Light 13h 56m
Length of Day
13h 02m
Waxing Gibbous, 87% of the Moon is Illuminated
Apr 11
Waxing Gibbous
Apr 15
Full
Apr 22
Last Quarter
Apr 29
New
May 6
First Quarter

Hourly Weather History & Observations

Time (MDT) Temp. Windchill Dew Point Humidity Pressure Visibility Wind Dir Wind Speed Gust Speed Precip Events Conditions
12:53 AM 52.0 °F - 34.0 °F 50% 29.92 in 10.0 mi SSE 12.7 mph - N/A   Clear
1:53 AM 48.9 °F - 33.1 °F 54% 29.93 in 10.0 mi South 4.6 mph - N/A   Clear
2:53 AM 46.0 °F 42.5 °F 32.0 °F 58% 29.92 in 10.0 mi SSW 6.9 mph - N/A   Clear
3:53 AM 44.1 °F 42.5 °F 30.9 °F 60% 29.94 in 10.0 mi WNW 3.5 mph - N/A   Clear
4:53 AM 44.1 °F - 32.0 °F 63% 29.94 in 10.0 mi Calm Calm - N/A   Clear
5:53 AM 44.1 °F 39.0 °F 32.0 °F 63% 29.96 in 10.0 mi SSE 9.2 mph - N/A   Clear
6:53 AM 39.0 °F 36.8 °F 30.9 °F 73% 29.98 in 9.0 mi West 3.5 mph - N/A   Clear
7:53 AM 50.0 °F - 34.0 °F 54% 29.96 in 10.0 mi SW 8.1 mph - N/A   Clear
8:53 AM 55.9 °F - 35.1 °F 45% 29.95 in 10.0 mi West 9.2 mph - N/A   Clear
9:53 AM 61.0 °F - 35.1 °F 38% 29.94 in 10.0 mi West 9.2 mph - N/A   Clear
10:53 AM 66.9 °F - 36.0 °F 32% 29.93 in 10.0 mi WNW 9.2 mph - N/A   Clear
11:53 AM 71.1 °F - 35.1 °F 27% 29.88 in 10.0 mi SSW 5.8 mph - N/A   Clear
12:53 PM 75.0 °F - 34.0 °F 22% 29.84 in 10.0 mi Variable 3.5 mph - N/A   Clear
1:53 PM 81.0 °F - 30.9 °F 16% 29.79 in 10.0 mi South 15.0 mph 20.7 mph N/A   Clear
2:53 PM 82.0 °F - 21.9 °F 11% 29.75 in 10.0 mi WSW 10.4 mph 21.9 mph N/A   Clear
3:53 PM 84.0 °F - 19.9 °F 9% 29.71 in 10.0 mi SSW 13.8 mph 24.2 mph N/A   Clear
4:51 PM 82.4 °F - 24.8 °F 12% 29.80 in 10.0 mi South 10.4 mph 21.9 mph N/A   Clear
4:53 PM 82.9 °F - 25.0 °F 12% 29.69 in 10.0 mi South 16.1 mph 21.9 mph N/A   Clear
5:53 PM 81.0 °F - 26.1 °F 13% 29.68 in 10.0 mi South 19.6 mph - N/A   Clear
6:53 PM 77.0 °F - 26.1 °F 15% 29.69 in 10.0 mi South 19.6 mph - N/A   Clear
7:53 PM 72.0 °F - 27.0 °F 19% 29.68 in 10.0 mi South 16.1 mph - N/A   Clear
8:53 PM 68.0 °F - 28.0 °F 22% 29.66 in 10.0 mi South 20.7 mph - N/A   Clear
9:53 PM 66.9 °F - 28.0 °F 23% 29.64 in 10.0 mi South 25.3 mph 29.9 mph N/A   Clear
10:53 PM 66.9 °F - 27.0 °F 22% 29.60 in 9.0 mi South 23.0 mph 32.2 mph N/A   Clear
11:53 PM 63.0 °F - 27.0 °F 26% 29.58 in 10.0 mi SSW 19.6 mph - N/A   Clear